QPF
0.01 0.04 0.07 0.12 0.14 0.15 0.11 0.07 0.05 0.04 0.04 0.03 0.03 0.03 0.03 0.05 0.09 0.21 0.23 0.17 0.12 0.06 0.05 0.07 0.06 0.06 0.07 0.06 0.06 0.07 0.06 0.05 0.05 0.04 0.03 0.02 0.02 0.02 0.03 0.04 0.03 0.02 0.03 0.04 0.04 0.04 0.03 0.02 0.03
0.05 0.10 0.09 0.15 0.14 0.10 0.08 0.07 0.06 0.07 0.06 0.04 0.03 0.03 0.03 0.04 0.06 0.12 0.13 0.12 0.08 0.05 0.04 0.05 0.05 0.05 0.05 0.05 0.05 0.05 0.04 0.04 0.04 0.03 0.03 0.02 0.03 0.03 0.04 0.04 0.03 0.02 0.03 0.04 0.04 0.04 0.03 0.03 0.03
0.10 0.15 0.14 0.22 0.14 0.07 0.07 0.06 0.06 0.04 0.03 0.03 0.02 0.02 0.04 0.05 0.05 0.06 0.07 0.06 0.04 0.03 0.04 0.04 0.04 0.07 0.07 0.07 0.06 0.05 0.05 0.05 0.04 0.03 0.03 0.03 0.03 0.03 0.03 0.04 0.03 0.04 0.05 0.05 0.03 0.03 0.03 0.04 0.04
0.12 0.15 0.18 0.19 0.08 0.05 0.05 0.05 0.04 0.02 0.02 0.02 0.02 0.03 0.05 0.05 0.05 0.05 0.05 0.04 0.03 0.03 0.03 0.04 0.04 0.06 0.07 0.08 0.09 0.06 0.06 0.06 0.05 0.04 0.03 0.02 0.01 0.02 0.03 0.04 0.04 0.05 0.04 0.04 0.04 0.04 0.03 0.03 0.04
0.10 0.18 0.18 0.11 0.05 0.05 0.03 0.03 0.02 0.02 0.02 0.01 0.01 0.02 0.04 0.05 0.06 0.06 0.04 0.03 0.02 0.03 0.04 0.04 0.05 0.05 0.05 0.05 0.06 0.06 0.06 0.05 0.04 0.04 0.03 0.02 0.02 0.03 0.04 0.03 0.03 0.03 0.03 0.04 0.05 0.05 0.03 0.03 0.03
0.11 0.16 0.12 0.06 0.04 0.03 0.02 0.02 0.02 0.01 0.01 0.01 0.01 0.02 0.05 0.05 0.06 0.06 0.03 0.02 0.02 0.04 0.05 0.04 0.05 0.06 0.06 0.05 0.05 0.05 0.04 0.03 0.03 0.03 0.02 0.01 0.01 0.02 0.02 0.02 0.03 0.03 0.03 0.04 0.05 0.05 0.04 0.04 0.02
0.11 0.13 0.07 0.03 0.03 0.04 0.02 0.02 0.01 0.01 0.01 0.01 0.00 0.02 0.06 0.05 0.05 0.03 0.02 0.01 0.02 0.03 0.04 0.04 0.05 0.06 0.07 0.07 0.06 0.04 0.03 0.02 0.04 0.05 0.05 0.03 0.02 0.02 0.02 0.02 0.03 0.04 0.05 0.05 0.06 0.05 0.06 0.06 0.04
0.06 0.06 0.05 0.03 0.02 0.04 0.02 0.01 0.01 0.00 0.01 0.01 0.01 0.02 0.05 0.05 0.03 0.02 0.02 0.02 0.03 0.06 0.09 0.07 0.06 0.07 0.07 0.07 0.07 0.04 0.03 0.03 0.05 0.08 0.08 0.06 0.04 0.03 0.02 0.02 0.02 0.03 0.05 0.07 0.07 0.07 0.06 0.08 0.06
0.06 0.06 0.06 0.05 0.03 0.03 0.02 0.01 0.00 0.00 0.01 0.01 0.01 0.01 0.03 0.02 0.01 0.01 0.02 0.04 0.04 0.08 0.11 0.10 0.06 0.07 0.07 0.06 0.05 0.04 0.03 0.04 0.04 0.06 0.07 0.05 0.02 0.02 0.02 0.03 0.03 0.02 0.04 0.05 0.06 0.06 0.06 0.08 0.07
0.14 0.07 0.05 0.04 0.02 0.02 0.01 0.00 0.00 0.00 0.01 0.01 0.01 0.02 0.01 0.01 0.01 0.01 0.02 0.04 0.06 0.10 0.11 0.09 0.06 0.05 0.05 0.05 0.04 0.04 0.03 0.02 0.02 0.03 0.05 0.03 0.01 0.02 0.03 0.03 0.04 0.05 0.05 0.06 0.06 0.05 0.05 0.07 0.06
0.10 0.06 0.02 0.01 0.01 0.01 0.01 0.00 0.00 0.00 0.01 0.01 0.02 0.02 0.01 0.01 0.01 0.01 0.03 0.04 0.06 0.07 0.08 0.07 0.04 0.02 0.03 0.02 0.02 0.02 0.03 0.02 0.02 0.03 0.03 0.02 0.02 0.03 0.04 0.03 0.04 0.07 0.07 0.07 0.07 0.07 0.05 0.07 0.06
0.05 0.05 0.01 0.00 0.00 0.01 0.01 0.01 0.00 0.01 0.01 0.01 0.01 0.01 0.00 0.00 0.02 0.01 0.01 0.01 0.03 0.03 0.03 0.03 0.02 0.01 0.01 0.01 0.01 0.01 0.02 0.03 0.02 0.02 0.03 0.02 0.02 0.03 0.03 0.04 0.04 0.05 0.06 0.07 0.08 0.06 0.04 0.06 0.07
0.04 0.02 0.00 0.00 0.00 0.00 0.00 0.00 0.00 0.01 0.01 0.01 0.01 0.01 0.01 0.01 0.01 0.00 0.01 0.01 0.01 0.02 0.02 0.02 0.02 0.01 0.01 0.01 0.01 0.01 0.01 0.01 0.02 0.02 0.03 0.05 0.04 0.03 0.04 0.04 0.06 0.07 0.06 0.07 0.07 0.06 0.06 0.08 0.08
0.02 0.01 0.00 0.00 0.00 0.00 0.01 0.00 0.00 0.01 0.01 0.01 0.00 0.01 0.01 0.01 0.01 0.01 0.01 0.01 0.01 0.01 0.01 0.01 0.01 0.01 0.00 0.01 0.01 0.01 0.01 0.01 0.01 0.02 0.02 0.03 0.05 0.06 0.05 0.05 0.06 0.07 0.06 0.06 0.05 0.07 0.07 0.09 0.07
0.02 0.01 0.01 0.01 0.00 0.01 0.02 0.01 0.01 0.01 0.01 0.00 0.01 0.01 0.01 0.01 0.00 0.00 0.00 0.00 0.01 0.01 0.00 0.01 0.00 0.01 0.01 0.01 0.01 0.01 0.02 0.03 0.02 0.02 0.02 0.02 0.04 0.06 0.07 0.07 0.06 0.06 0.06 0.06 0.06 0.07 0.07 0.07 0.06
0.04 0.02 0.01 0.01 0.01 0.02 0.03 0.03 0.02 0.01 0.01 0.01 0.01 0.01 0.01 0.02 0.01 0.01 0.00 0.00 0.00 0.00 0.00 0.01 0.01 0.01 0.01 0.01 0.01 0.01 0.02 0.04 0.04 0.03 0.03 0.02 0.03 0.05 0.06 0.07 0.06 0.05 0.06 0.06 0.05 0.07 0.07 0.09 0.07
0.02 0.02 0.01 0.01 0.02 0.02 0.02 0.02 0.03 0.04 0.02 0.01 0.01 0.01 0.01 0.01 0.03 0.02 0.00 0.00 0.00 0.00 0.00 0.01 0.01 0.01 0.02 0.02 0.01 0.01 0.02 0.05 0.07 0.08 0.06 0.05 0.04 0.04 0.02 0.04 0.04 0.05 0.03 0.03 0.03 0.06 0.07 0.09 0.11
0.02 0.01 0.01 0.01 0.01 0.01 0.01 0.02 0.03 0.02 0.01 0.01 0.01 0.01 0.01 0.01 0.05 0.04 0.01 0.01 0.00 0.00 0.00 0.00 0.01 0.01 0.02 0.02 0.02 0.02 0.02 0.05 0.07 0.11 0.13 0.11 0.07 0.05 0.03 0.04 0.05 0.05 0.03 0.03 0.03 0.05 0.06 0.10 0.12
0.02 0.02 0.01 0.01 0.01 0.01 0.01 0.01 0.01 0.01 0.01 0.01 0.00 0.00 0.00 0.01 0.06 0.06 0.04 0.01 0.01 0.01 0.01 0.01 0.02 0.03 0.03 0.03 0.03 0.02 0.02 0.04 0.06 0.09 0.12 0.12 0.10 0.08 0.08 0.09 0.07 0.05 0.04 0.04 0.04 0.05 0.06 0.09 0.11
0.02 0.02 0.01 0.01 0.01 0.00 0.01 0.01 0.01 0.01 0.01 0.01 0.00 0.00 0.00 0.00 0.01 0.02 0.03 0.01 0.02 0.02 0.03 0.03 0.05 0.05 0.05 0.05 0.05 0.04 0.03 0.03 0.05 0.07 0.09 0.09 0.09 0.11 0.09 0.06 0.05 0.04 0.04 0.03 0.03 0.05 0.05 0.06 0.09
0.03 0.01 0.01 0.01 0.01 0.01 0.01 0.02 0.02 0.02 0.01 0.01 0.01 0.01 0.00 0.01 0.01 0.01 0.02 0.01 0.01 0.02 0.03 0.03 0.04 0.05 0.06 0.06 0.06 0.05 0.03 0.03 0.04 0.07 0.08 0.09 0.10 0.10 0.10 0.09 0.07 0.06 0.04 0.03 0.03 0.04 0.06 0.06 0.07
0.02 0.01 0.00 0.01 0.01 0.02 0.02 0.04 0.03 0.02 0.02 0.01 0.01 0.01 0.01 0.02 0.02 0.01 0.01 0.01 0.00 0.01 0.02 0.03 0.02 0.03 0.04 0.04 0.04 0.04 0.04 0.04 0.04 0.05 0.06 0.12 0.14 0.12 0.08 0.07 0.07 0.07 0.06 0.04 0.03 0.03 0.04 0.05 0.05
0.01 0.00 0.00 0.00 0.01 0.01 0.02 0.03 0.05 0.03 0.02 0.01 0.01 0.01 0.01 0.02 0.01 0.01 0.01 0.01 0.00 0.01 0.01 0.01 0.01 0.02 0.03 0.03 0.03 0.04 0.03 0.03 0.03 0.04 0.05 0.07 0.07 0.08 0.06 0.05 0.06 0.06 0.06 0.04 0.04 0.05 0.06 0.06 0.05
0.00 0.00 0.00 0.00 0.01 0.01 0.02 0.03 0.06 0.04 0.02 0.01 0.02 0.02 0.02 0.02 0.02 0.02 0.01 0.01 0.01 0.01 0.00 0.00 0.01 0.01 0.02 0.02 0.03 0.02 0.02 0.03 0.04 0.04 0.04 0.05 0.06 0.08 0.07 0.05 0.04 0.04 0.04 0.05 0.06 0.07 0.07 0.07 0.05
0.00 0.00 0.00 0.01 0.01 0.02 0.01 0.04 0.06 0.06 0.04 0.02 0.03 0.03 0.02 0.02 0.03 0.03 0.02 0.02 0.02 0.02 0.01 0.01 0.02 0.02 0.02 0.03 0.04 0.04 0.04 0.04 0.04 0.04 0.04 0.04 0.05 0.08 0.06 0.04 0.03 0.04 0.05 0.10 0.11 0.07 0.05 0.06 0.05
0.00 0.01 0.02 0.03 0.02 0.02 0.02 0.02 0.04 0.03 0.03 0.01 0.01 0.01 0.01 0.01 0.01 0.02 0.03 0.04 0.04 0.04 0.03 0.02 0.02 0.03 0.04 0.06 0.06 0.05 0.06 0.06 0.06 0.04 0.03 0.03 0.03 0.05 0.05 0.04 0.04 0.05 0.07 0.06 0.05 0.04 0.03 0.03 0.04
0.00 0.00 0.01 0.01 0.01 0.03 0.04 0.03 0.03 0.02 0.01 0.01 0.01 0.02 0.01 0.03 0.04 0.03 0.06 0.09 0.09 0.08 0.05 0.03 0.03 0.04 0.07 0.10 0.08 0.07 0.08 0.09 0.09 0.06 0.04 0.04 0.03 0.04 0.05 0.05 0.04 0.04 0.05 0.05 0.04 0.03 0.02 0.01 0.02
0.00 0.01 0.01 0.02 0.01 0.03 0.03 0.04 0.04 0.02 0.02 0.02 0.03 0.03 0.02 0.03 0.05 0.05 0.05 0.06 0.09 0.11 0.09 0.06 0.06 0.09 0.10 0.07 0.07 0.09 0.11 0.13 0.11 0.08 0.05 0.03 0.03 0.04 0.04 0.04 0.04 0.04 0.04 0.04 0.03 0.02 0.03 0.02 0.01
0.01 0.01 0.01 0.01 0.01 0.01 0.03 0.04 0.03 0.03 0.03 0.02 0.02 0.02 0.03 0.07 0.07 0.06 0.05 0.04 0.04 0.06 0.10 0.10 0.10 0.09 0.07 0.06 0.06 0.09 0.12 0.13 0.10 0.07 0.05 0.04 0.04 0.04 0.03 0.04 0.04 0.04 0.03 0.03 0.02 0.02 0.03 0.03 0.01
0.01 0.00 0.01 0.01 0.01 0.01 0.02 0.05 0.05 0.04 0.03 0.02 0.01 0.01 0.03 0.09 0.08 0.07 0.07 0.06 0.04 0.04 0.05 0.07 0.09 0.08 0.06 0.04 0.04 0.05 0.05 0.06 0.06 0.05 0.04 0.03 0.03 0.03 0.03 0.02 0.02 0.03 0.03 0.04 0.03 0.03 0.04 0.03 0.02
MSLP
1011.38 1012.10 1012.84 1013.42 1013.72 1013.67 1013.27 1012.61 1011.84 1011.14 1010.66 1010.53 1010.75 1011.28 1011.99 1012.73 1013.35 1013.73 1013.82 1013.64 1013.29 1012.88 1012.51 1012.28 1012.23 1012.34 1012.56 1012.81 1013.02 1013.17 1013.23 1013.24 1013.25 1013.32 1013.48 1013.74 1014.07 1014.45 1014.80 1015.09 1015.29 1015.40 1015.44 1015.45 1015.46 1015.50 1015.57 1015.68 1015.80
1011.53 1012.35 1013.09 1013.58 1013.73 1013.48 1012.88 1012.06 1011.18 1010.42 1009.96 1009.87 1010.15 1010.75 1011.52 1012.30 1012.94 1013.34 1013.47 1013.36 1013.08 1012.76 1012.50 1012.37 1012.40 1012.57 1012.82 1013.09 1013.31 1013.46 1013.54 1013.57 1013.60 1013.69 1013.85 1014.10 1014.41 1014.74 1015.04 1015.27 1015.43 1015.50 1015.53 1015.53 1015.54 1015.59 1015.66 1015.76 1015.87
1011.87 1012.73 1013.41 1013.78 1013.74 1013.30 1012.53 1011.58 1010.63 1009.87 1009.45 1009.42 1009.77 1010.41 1011.20 1011.98 1012.61 1013.01 1013.15 1013.08 1012.88 1012.66 1012.50 1012.46 1012.57 1012.79 1013.08 1013.36 1013.60 1013.76 1013.86 1013.91 1013.97 1014.07 1014.23 1014.45 1014.71 1014.97 1015.20 1015.37 1015.47 1015.53 1015.55 1015.57 1015.60 1015.67 1015.76 1015.86 1015.96
1012.37 1013.21 1013.78 1013.97 1013.74 1013.11 1012.19 1011.17 1010.21 1009.51 1009.17 1009.23 1009.64 1010.30 1011.08 1011.82 1012.40 1012.77 1012.91 1012.87 1012.74 1012.61 1012.55 1012.61 1012.79 1013.05 1013.35 1013.64 1013.87 1014.04 1014.15 1014.23 1014.31 1014.42 1014.57 1014.76 1014.96 1015.15 1015.31 1015.42 1015.48 1015.52 1015.56 1015.61 1015.69 1015.79 1015.90 1016.02 1016.11
1012.96 1013.71 1014.11 1014.09 1013.64 1012.85 1011.84 1010.80 1009.91 1009.31 1009.10 1009.26 1009.73 1010.41 1011.15 1011.82 1012.33 1012.64 1012.76 1012.75 1012.69 1012.65 1012.69 1012.83 1013.05 1013.34 1013.63 1013.90 1014.11 1014.27 1014.38 1014.48 1014.58 1014.71 1014.86 1015.02 1015.18 1015.31 1015.40 1015.46 1015.50 1015.55 1015.61 1015.70 1015.83 1015.98 1016.12 1016.25 1016.34
1013.54 1014.11 1014.29 1014.03 1013.38 1012.45 1011.40 1010.42 1009.65 1009.22 1009.16 1009.45 1009.99 1010.67 1011.35 1011.94 1012.36 1012.61 1012.71 1012.73 1012.74 1012.79 1012.91 1013.11 1013.37 1013.65 1013.91 1014.13 1014.30 1014.42 1014.53 1014.64 1014.77 1014.92 1015.08 1015.24 1015.37 1015.46 1015.51 1015.54 1015.57 1015.62 1015.72 1015.86 1016.04 1016.23 1016.40 1016.53 1016.60
1013.96 1014.30 1014.21 1013.71 1012.87 1011.86 1010.82 1009.95 1009.36 1009.14 1009.27 1009.70 1010.31 1010.99 1011.61 1012.11 1012.44 1012.63 1012.72 1012.77 1012.85 1012.98 1013.18 1013.43 1013.71 1013.96 1014.16 1014.31 1014.42 1014.50 1014.58 1014.70 1014.86 1015.04 1015.23 1015.40 1015.54 1015.62 1015.65 1015.66 1015.69 1015.76 1015.88 1016.06 1016.28 1016.49 1016.68 1016.80 1016.85
1014.12 1014.21 1013.84 1013.10 1012.12 1011.06 1010.09 1009.37 1009.00 1009.01 1009.35 1009.92 1010.60 1011.27 1011.83 1012.25 1012.50 1012.64 1012.72 1012.82 1012.96 1013.18 1013.45 1013.75 1014.02 1014.23 1014.37 1014.44 1014.47 1014.50 1014.56 1014.68 1014.87 1015.10 1015.33 1015.54 1015.69 1015.77 1015.81 1015.81 1015.84 1015.91 1016.05 1016.24 1016.48 1016.70 1016.89 1017.00 1017.02
1014.01 1013.83 1013.21 1012.27 1011.17 1010.11 1009.25 1008.72 1008.58 1008.82 1009.35 1010.06 1010.79 1011.45 1011.95 1012.28 1012.47 1012.57 1012.66 1012.80 1013.02 1013.32 1013.66 1013.99 1014.26 1014.43 1014.50 1014.49 1014.45 1014.43 1014.47 1014.61 1014.82 1015.10 1015.38 1015.63 1015.81 1015.91 1015.95 1015.95 1015.97 1016.04 1016.17 1016.36 1016.58 1016.80 1016.97 1017.06 1017.05
1013.65 1013.23 1012.40 1011.31 1010.15 1009.13 1008.39 1008.05 1008.13 1008.58 1009.28 1010.08 1010.85 1011.48 1011.93 1012.19 1012.32 1012.39 1012.50 1012.68 1012.97 1013.34 1013.74 1014.10 1014.36 1014.51 1014.52 1014.46 1014.37 1014.31 1014.34 1014.48 1014.73 1015.05 1015.37 1015.66 1015.87 1016.00 1016.04 1016.04 1016.04 1016.09 1016.20 1016.36 1016.56 1016.75 1016.89 1016.95 1016.92
1013.15 1012.54 1011.56 1010.38 1009.21 1008.25 1007.65 1007.48 1007.73 1008.34 1009.15 1010.01 1010.78 1011.37 1011.75 1011.95 1012.03 1012.09 1012.21 1012.44 1012.78 1013.21 1013.65 1014.04 1014.31 1014.44 1014.43 1014.33 1014.21 1014.14 1014.17 1014.33 1014.60 1014.94 1015.30 1015.62 1015.85 1015.99 1016.04 1016.03 1016.02 1016.04 1016.12 1016.25 1016.41 1016.57 1016.68 1016.72 1016.67
1012.62 1011.90 1010.84 1009.63 1008.49 1007.61 1007.13 1007.09 1007.46 1008.16 1009.01 1009.87 1010.61 1011.14 1011.46 1011.60 1011.64 1011.69 1011.82 1012.07 1012.45 1012.91 1013.38 1013.79 1014.07 1014.20 1014.20 1014.11 1014.00 1013.93 1013.97 1014.14 1014.42 1014.78 1015.15 1015.48 1015.72 1015.87 1015.92 1015.91 1015.89 1015.89 1015.94 1016.04 1016.17 1016.29 1016.38 1016.40 1016.34
1012.19 1011.42 1010.34 1009.16 1008.09 1007.30 1006.90 1006.94 1007.37 1008.07 1008.90 1009.71 1010.37 1010.83 1011.08 1011.17 1011.19 1011.22 1011.35 1011.61 1012.00 1012.46 1012.94 1013.36 1013.66 1013.82 1013.85 1013.79 1013.72 1013.69 1013.75 1013.93 1014.21 1014.55 1014.91 1015.22 1015.46 1015.61 1015.67 1015.68 1015.66 1015.67 1015.71 1015.78 1015.89 1015.99 1016.06 1016.08 1016.02
1011.91 1011.15 1010.12 1009.01 1008.03 1007.32 1006.99 1007.05 1007.45 1008.09 1008.83 1009.53 1010.09 1010.46 1010.65 1010.71 1010.70 1010.73 1010.85 1011.10 1011.47 1011.91 1012.38 1012.79 1013.11 1013.31 1013.39 1013.41 1013.40 1013.42 1013.51 1013.69 1013.95 1014.26 1014.58 1014.86 1015.09 1015.23 1015.31 1015.34 1015.36 1015.39 1015.44 1015.53 1015.63 1015.73 1015.80 1015.81 1015.76
1011.80 1011.08 1010.14 1009.14 1008.26 1007.63 1007.32 1007.35 1007.66 1008.18 1008.77 1009.32 1009.76 1010.05 1010.19 1010.22 1010.22 1010.25 1010.36 1010.58 1010.91 1011.31 1011.74 1012.14 1012.47 1012.72 1012.88 1012.98 1013.06 1013.15 1013.28 1013.46 1013.69 1013.94 1014.19 1014.43 1014.62 1014.76 1014.86 1014.93 1015.00 1015.08 1015.18 1015.30 1015.42 1015.53 1015.61 1015.63 1015.58
1011.79 1011.15 1010.32 1009.46 1008.69 1008.12 1007.81 1007.77 1007.95 1008.29 1008.69 1009.07 1009.38 1009.58 1009.69 1009.73 1009.74 1009.78 1009.89 1010.09 1010.36 1010.70 1011.08 1011.45 1011.80 1012.10 1012.35 1012.56 1012.74 1012.91 1013.08 1013.25 1013.44 1013.62 1013.79 1013.95 1014.10 1014.23 1014.35 1014.48 1014.62 1014.77 1014.93 1015.10 1015.25 1015.38 1015.47 1015.50 1015.47
1011.81 1011.27 1010.58 1009.86 1009.21 1008.71 1008.38 1008.23 1008.25 1008.37 1008.55 1008.74 1008.91 1009.04 1009.12 1009.19 1009.24 1009.32 1009.44 1009.61 1009.84 1010.11 1010.43 1010.78 1011.14 1011.49 1011.84 1012.17 1012.46 1012.72 1012.93 1013.11 1013.23 1013.33 1013.41 1013.49 1013.57 1013.68 1013.82 1014.00 1014.21 1014.43 1014.66 1014.88 1015.07 1015.22 1015.33 1015.38 1015.36
1011.79 1011.36 1010.83 1010.28 1009.77 1009.33 1008.97 1008.71 1008.52 1008.41 1008.35 1008.33 1008.34 1008.39 1008.47 1008.57 1008.69 1008.82 1008.97 1009.14 1009.33 1009.55 1009.81 1010.13 1010.51 1010.93 1011.37 1011.82 1012.23 1012.59 1012.85 1013.02 1013.09 1013.11 1013.08 1013.06 1013.08 1013.15 1013.29 1013.51 1013.77 1014.05 1014.34 1014.60 1014.82 1014.99 1015.11 1015.17 1015.18
1011.69 1011.39 1011.05 1010.70 1010.34 1009.96 1009.58 1009.18 1008.78 1008.41 1008.08 1007.83 1007.68 1007.64 1007.70 1007.85 1008.04 1008.25 1008.45 1008.63 1008.80 1008.98 1009.21 1009.51 1009.90 1010.39 1010.93 1011.50 1012.04 1012.48 1012.80 1012.97 1013.01 1012.94 1012.81 1012.70 1012.63 1012.65 1012.78 1013.00 1013.29 1013.61 1013.92 1014.20 1014.43 1014.61 1014.73 1014.81 1014.84
1011.49 1011.38 1011.26 1011.13 1010.93 1010.64 1010.23 1009.70 1009.07 1008.41 1007.79 1007.28 1006.93 1006.78 1006.82 1007.00 1007.26 1007.55 1007.82 1008.04 1008.22 1008.39 1008.59 1008.89 1009.31 1009.85 1010.49 1011.17 1011.82 1012.36 1012.74 1012.93 1012.94 1012.80 1012.59 1012.38 1012.23 1012.18 1012.27 1012.47 1012.76 1013.08 1013.39 1013.66 1013.88 1014.04 1014.15 1014.24 1014.30
1011.24 1011.34 1011.49 1011.60 1011.60 1011.40 1010.97 1010.29 1009.42 1008.45 1007.51 1006.72 1006.15 1005.86 1005.83 1006.02 1006.35 1006.73 1007.07 1007.35 1007.55 1007.73 1007.93 1008.23 1008.67 1009.27 1009.98 1010.76 1011.51 1012.15 1012.60 1012.82 1012.82 1012.64 1012.37 1012.08 1011.85 1011.74 1011.77 1011.94 1012.19 1012.47 1012.75 1012.98 1013.16 1013.28 1013.37 1013.46 1013.55
1010.97 1011.34 1011.77 1012.16 1012.36 1012.26 1011.80 1010.97 1009.85 1008.57 1007.30 1006.19 1005.37 1004.91 1004.79 1004.97 1005.34 1005.79 1006.21 1006.55 1006.80 1007.00 1007.22 1007.52 1007.98 1008.61 1009.38 1010.24 1011.07 1011.79 1012.31 1012.58 1012.59 1012.41 1012.10 1011.76 1011.48 1011.32 1011.29 1011.40 1011.59 1011.82 1012.04 1012.21 1012.33 1012.40 1012.45 1012.51 1012.62
1010.72 1011.38 1012.11 1012.77 1013.17 1013.17 1012.68 1011.71 1010.35 1008.77 1007.16 1005.74 1004.65 1003.99 1003.76 1003.89 1004.29 1004.79 1005.28 1005.69 1006.00 1006.23 1006.46 1006.76 1007.23 1007.87 1008.67 1009.57 1010.47 1011.25 1011.84 1012.16 1012.22 1012.06 1011.76 1011.41 1011.10 1010.90 1010.83 1010.88 1011.02 1011.19 1011.33 1011.43 1011.46 1011.46 1011.46 1011.49 1011.58
1010.49 1011.43 1012.46 1013.37 1013.96 1014.04 1013.53 1012.43 1010.85 1008.98 1007.07 1005.35 1004.00 1003.15 1002.79 1002.88 1003.27 1003.82 1004.37 1004.85 1005.20 1005.46 1005.70 1006.00 1006.45 1007.08 1007.88 1008.79 1009.72 1010.55 1011.20 1011.59 1011.71 1011.61 1011.35 1011.02 1010.73 1010.51 1010.41 1010.43 1010.51 1010.61 1010.68 1010.69 1010.64 1010.56 1010.49 1010.46 1010.52
1010.24 1011.45 1012.73 1013.86 1014.59 1014.73 1014.20 1012.99 1011.23 1009.13 1006.97 1005.01 1003.46 1002.43 1001.97 1001.99 1002.38 1002.96 1003.56 1004.09 1004.49 1004.77 1005.02 1005.30 1005.72 1006.31 1007.08 1007.97 1008.90 1009.75 1010.45 1010.90 1011.11 1011.08 1010.90 1010.63 1010.38 1010.18 1010.08 1010.07 1010.10 1010.14 1010.14 1010.07 1009.94 1009.77 1009.61 1009.51 1009.51
1009.93 1011.35 1012.82 1014.09 1014.92 1015.11 1014.55 1013.27 1011.39 1009.14 1006.82 1004.70 1003.00 1001.87 1001.32 1001.31 1001.69 1002.29 1002.93 1003.50 1003.93 1004.24 1004.48 1004.74 1005.11 1005.65 1006.36 1007.21 1008.11 1008.98 1009.70 1010.22 1010.50 1010.57 1010.48 1010.30 1010.10 1009.95 1009.86 1009.83 1009.84 1009.82 1009.75 1009.61 1009.39 1009.13 1008.87 1008.67 1008.57
1009.53 1011.06 1012.63 1013.98 1014.84 1015.04 1014.47 1013.16 1011.24 1008.94 1006.56 1004.39 1002.64 1001.46 1000.89 1000.86 1001.25 1001.86 1002.53 1003.13 1003.59 1003.92 1004.15 1004.39 1004.72 1005.19 1005.84 1006.63 1007.49 1008.34 1009.08 1009.64 1010.00 1010.16 1010.17 1010.08 1009.95 1009.85 1009.78 1009.74 1009.71 1009.65 1009.51 1009.29 1008.98 1008.62 1008.26 1007.95 1007.74
1008.99 1010.55 1012.12 1013.45 1014.30 1014.48 1013.91 1012.61 1010.73 1008.48 1006.17 1004.05 1002.36 1001.22 1000.67 1000.67 1001.06 1001.69 1002.38 1003.00 1003.48 1003.82 1004.06 1004.28 1004.57 1005.00 1005.58 1006.31 1007.12 1007.94 1008.69 1009.29 1009.71 1009.95 1010.04 1010.03 1009.97 1009.90 1009.84 1009.79 1009.72 1009.60 1009.39 1009.08 1008.68 1008.22 1007.75 1007.32 1006.98
1008.33 1009.81 1011.29 1012.52 1013.28 1013.42 1012.87 1011.64 1009.87 1007.78 1005.64 1003.69 1002.14 1001.12 1000.65 1000.69 1001.11 1001.75 1002.44 1003.08 1003.58 1003.93 1004.18 1004.41 1004.69 1005.08 1005.62 1006.30 1007.07 1007.86 1008.60 1009.21 1009.68 1009.97 1010.13 1010.17 1010.16 1010.11 1010.04 1009.96 1009.83 1009.63 1009.33 1008.93 1008.43 1007.87 1007.28 1006.73 1006.27
1007.58 1008.91 1010.20 1011.26 1011.90 1011.99 1011.45 1010.34 1008.75 1006.90 1005.01 1003.31 1001.97 1001.11 1000.76 1000.86 1001.30 1001.95 1002.64 1003.28 1003.79 1004.18 1004.46 1004.71 1005.00 1005.40 1005.92 1006.57 1007.31 1008.07 1008.79 1009.41 1009.89 1010.22 1010.41 1010.49 1010.49 1010.43 1010.33 1010.19 1009.98 1009.69 1009.29 1008.79 1008.18 1007.51 1006.81 1006.14 1005.56
Thickness
5816 5814 5811 5800 5781 5767 5766 5784 5799 5801 5803 5811 5816 5810 5799 5792 5784 5777 5799 5808 5807 5805 5804 5802 5801 5800 5799 5797 5796 5795 5794 5793 5792 5791 5790 5789 5788 5787 5786 5786 5785 5783 5782 5781 5780 5779 5778 5777 5777
5818 5814 5805 5790 5770 5755 5768 5791 5798 5804 5812 5817 5816 5810 5801 5796 5803 5800 5802 5807 5807 5805 5804 5803 5801 5800 5799 5797 5795 5794 5793 5792 5792 5791 5790 5788 5787 5786 5786 5785 5783 5783 5781 5780 5779 5778 5777 5776 5776
5821 5817 5797 5781 5768 5763 5775 5797 5803 5814 5821 5819 5811 5810 5802 5796 5802 5803 5807 5809 5807 5805 5804 5803 5802 5800 5798 5797 5795 5794 5793 5792 5791 5790 5789 5788 5787 5786 5785 5784 5783 5782 5781 5779 5778 5777 5777 5775 5775
5820 5806 5793 5775 5770 5786 5795 5805 5813 5813 5816 5819 5812 5801 5804 5811 5810 5810 5811 5810 5806 5805 5804 5803 5801 5799 5798 5796 5795 5794 5792 5792 5791 5790 5789 5788 5786 5785 5784 5783 5782 5781 5780 5779 5778 5777 5776 5775 5774
5817 5798 5780 5771 5780 5799 5810 5818 5820 5812 5811 5813 5810 5796 5796 5810 5816 5814 5811 5810 5806 5804 5803 5802 5800 5799 5797 5796 5795 5794 5792 5791 5790 5789 5788 5787 5786 5785 5784 5783 5782 5780 5779 5778 5776 5775 5774 5774 5773
5802 5791 5771 5767 5785 5804 5815 5824 5823 5814 5811 5812 5808 5797 5796 5810 5812 5811 5812 5809 5808 5805 5803 5801 5800 5799 5797 5795 5794 5793 5792 5791 5790 5789 5788 5787 5786 5784 5783 5782 5781 5780 5779 5777 5776 5775 5774 5773 5772
5798 5785 5774 5780 5788 5800 5814 5826 5821 5814 5811 5813 5814 5797 5796 5806 5812 5813 5812 5809 5807 5805 5803 5801 5799 5798 5796 5794 5793 5792 5791 5790 5789 5788 5787 5786 5785 5784 5783 5782 5780 5779 5777 5776 5775 5774 5773 5772 5771
5813 5793 5781 5786 5791 5798 5820 5827 5827 5822 5816 5825 5821 5800 5795 5807 5814 5813 5811 5807 5805 5804 5802 5801 5799 5797 5796 5794 5792 5791 5790 5789 5789 5788 5787 5786 5784 5783 5782 5781 5780 5778 5777 5775 5774 5773 5772 5771 5770
5821 5788 5777 5790 5797 5804 5822 5822 5826 5833 5825 5823 5823 5817 5815 5817 5815 5809 5805 5802 5801 5801 5801 5800 5798 5797 5795 5793 5792 5791 5790 5789 5788 5787 5786 5785 5784 5783 5782 5781 5779 5778 5777 5775 5773 5772 5771 5770 5769
5810 5784 5793 5815 5819 5818 5824 5824 5825 5821 5814 5812 5813 5817 5819 5816 5811 5805 5800 5797 5797 5797 5798 5799 5798 5796 5795 5794 5792 5790 5789 5788 5788 5787 5786 5785 5783 5782 5781 5780 5779 5777 5776 5775 5773 5771 5770 5769 5768
5813 5802 5816 5827 5833 5832 5826 5825 5829 5817 5805 5810 5809 5810 5813 5811 5807 5804 5801 5800 5799 5799 5799 5799 5798 5797 5795 5794 5792 5790 5789 5788 5787 5787 5786 5784 5783 5781 5780 5779 5778 5777 5776 5774 5773 5771 5770 5769 5767
5818 5823 5828 5831 5838 5834 5828 5826 5823 5820 5816 5825 5823 5819 5814 5809 5806 5804 5802 5801 5801 5800 5800 5800 5800 5798 5797 5795 5793 5791 5790 5788 5787 5787 5786 5784 5782 5781 5780 5779 5778 5777 5775 5773 5772 5770 5769 5768 5767
5820 5824 5835 5839 5839 5837 5833 5827 5824 5822 5828 5829 5825 5819 5813 5810 5807 5807 5807 5805 5803 5801 5801 5801 5801 5799 5797 5795 5794 5792 5791 5790 5788 5787 5786 5785 5783 5781 5780 5778 5777 5776 5774 5772 5771 5769 5768 5767 5766
5827 5829 5832 5836 5837 5836 5828 5825 5823 5820 5828 5824 5820 5815 5814 5811 5809 5807 5805 5804 5803 5802 5802 5802 5801 5800 5798 5796 5794 5792 5791 5790 5789 5788 5787 5786 5784 5782 5780 5778 5777 5775 5774 5772 5771 5769 5768 5766 5766
5835 5823 5823 5831 5834 5833 5829 5810 5816 5825 5826 5820 5817 5815 5814 5812 5811 5809 5808 5806 5805 5804 5804 5803 5802 5801 5799 5797 5795 5793 5792 5791 5789 5788 5788 5786 5785 5783 5781 5778 5777 5775 5773 5772 5770 5769 5767 5766 5765
5823 5809 5800 5821 5830 5832 5818 5792 5815 5827 5823 5815 5815 5814 5812 5811 5812 5813 5812 5810 5809 5806 5805 5804 5804 5801 5799 5797 5796 5794 5793 5791 5790 5789 5788 5786 5785 5783 5781 5778 5776 5775 5773 5771 5769 5768 5766 5765 5764
5801 5790 5793 5811 5829 5828 5814 5798 5816 5827 5822 5814 5814 5814 5811 5810 5811 5813 5814 5813 5811 5809 5806 5803 5803 5800 5798 5796 5795 5793 5792 5791 5790 5789 5787 5786 5784 5783 5781 5778 5776 5774 5772 5770 5769 5767 5765 5763 5762
5788 5792 5797 5802 5821 5822 5809 5805 5816 5824 5821 5816 5814 5813 5811 5809 5811 5814 5815 5814 5812 5810 5807 5804 5802 5800 5798 5795 5793 5791 5790 5789 5789 5788 5786 5785 5783 5782 5780 5777 5775 5773 5771 5768 5767 5765 5764 5762 5761
5808 5800 5797 5809 5826 5816 5806 5805 5813 5820 5818 5814 5812 5811 5810 5811 5815 5816 5816 5815 5812 5809 5805 5802 5799 5798 5796 5793 5789 5787 5785 5786 5786 5786 5785 5784 5782 5781 5779 5776 5773 5771 5769 5767 5766 5764 5761 5760 5759
5809 5798 5798 5809 5824 5815 5803 5802 5812 5816 5816 5817 5815 5812 5812 5810 5811 5813 5814 5813 5811 5808 5805 5802 5800 5798 5796 5794 5791 5789 5787 5785 5785 5784 5784 5783 5782 5780 5779 5775 5773 5771 5769 5766 5765 5763 5759 5758 5758
5808 5801 5801 5801 5812 5812 5800 5787 5797 5809 5816 5817 5818 5818 5816 5814 5811 5812 5812 5811 5809 5807 5805 5804 5800 5798 5797 5794 5791 5788 5785 5783 5781 5780 5780 5781 5780 5779 5777 5775 5773 5771 5769 5766 5764 5763 5759 5755 5755
5800 5821 5819 5811 5794 5780 5790 5760 5783 5796 5802 5808 5812 5814 5815 5816 5815 5813 5812 5810 5809 5808 5807 5804 5801 5798 5796 5794 5789 5785 5780 5776 5778 5778 5778 5779 5778 5777 5776 5774 5772 5770 5768 5766 5764 5763 5759 5755 5751
5815 5830 5822 5814 5794 5779 5782 5764 5771 5790 5790 5799 5808 5812 5815 5817 5816 5814 5813 5812 5811 5810 5807 5803 5800 5797 5795 5792 5789 5784 5780 5779 5778 5777 5776 5776 5776 5775 5774 5772 5771 5769 5767 5765 5763 5760 5758 5755 5751
5832 5821 5810 5796 5778 5757 5774 5765 5762 5782 5794 5801 5809 5815 5816 5817 5816 5814 5813 5812 5809 5809 5806 5802 5797 5794 5793 5790 5787 5783 5779 5777 5775 5773 5772 5771 5772 5772 5771 5770 5768 5766 5765 5762 5760 5758 5756 5754 5751
5819 5788 5761 5754 5743 5750 5776 5767 5770 5799 5810 5810 5809 5813 5816 5817 5814 5811 5809 5807 5804 5802 5801 5799 5795 5791 5790 5787 5784 5782 5780 5777 5773 5771 5769 5768 5767 5767 5767 5768 5766 5764 5762 5760 5757 5756 5754 5752 5750
5807 5790 5756 5742 5737 5748 5768 5762 5781 5810 5817 5817 5816 5815 5815 5814 5812 5810 5808 5806 5803 5800 5798 5795 5792 5789 5787 5784 5782 5781 5778 5775 5772 5770 5768 5766 5766 5766 5766 5765 5763 5762 5760 5758 5756 5754 5752 5751 5749
5803 5790 5789 5763 5753 5743 5751 5767 5788 5806 5808 5810 5810 5809 5809 5811 5811 5810 5807 5805 5802 5798 5795 5794 5791 5787 5784 5782 5779 5776 5774 5773 5770 5768 5767 5765 5765 5765 5763 5762 5760 5759 5757 5756 5754 5751 5749 5748 5746
5818 5804 5776 5756 5737 5730 5744 5754 5763 5784 5792 5800 5803 5803 5806 5808 5807 5807 5804 5802 5800 5798 5795 5794 5789 5785 5782 5779 5776 5774 5772 5770 5769 5766 5764 5763 5762 5761 5760 5758 5756 5755 5753 5752 5750 5748 5746 5744 5742
5802 5794 5777 5757 5750 5732 5726 5746 5790 5791 5796 5797 5801 5804 5805 5803 5802 5802 5800 5799 5797 5795 5792 5790 5786 5782 5778 5776 5773 5771 5769 5767 5765 5763 5761 5760 5759 5757 5755 5754 5752 5751 5749 5747 5745 5744 5742 5740 5738
5807 5795 5777 5755 5748 5743 5734 5750 5801 5798 5799 5799 5801 5802 5802 5801 5801 5800 5798 5795 5791 5789 5787 5785 5782 5778 5775 5773 5770 5768 5766 5764 5761 5759 5758 5756 5754 5753 5751 5750 5748 5747 5745 5744 5741 5739 5738 5736 5734